FW5165 Weather Reports


Display with metric or nautical units.
time (UTC)temp
F
wind
direction
speed
MPH
gust
MPH
rain 1hr
in
rain 24hr
in
rain mn
in
humidity
%
barometer
mb
20260905120537 58 50 1.0 3.0 0.00 0.01 0.00 72 1015.3
20260905120034 58 69 1.0 4.0 0.00 0.01 0.00 73 1015.4
20260905115533 58 69 1.0 4.0 0.00 0.01 0.00 73 1015.4
20260905115033 58 69 1.0 3.0 0.00 0.01 0.00 73 1015.4
20260905114533 58 67 1.0 4.0 0.00 0.01 0.00 73 1015.4
20260905114033 58 67 0.0 4.0 0.00 0.01 0.00 73 1015.4
20260905113532 58 67 1.0 4.0 0.00 0.01 0.00 73 1015.4
20260905113031 58 66 1.0 4.0 0.00 0.01 0.00 74 1015.5
20260905112532 58 63 1.0 3.0 0.00 0.01 0.00 74 1015.5
20260905112033 58 62 1.0 4.0 0.00 0.01 0.00 74 1015.6
20260905111531 58 51 1.0 4.0 0.00 0.01 0.00 74 1015.6
20260905111031 58 50 1.0 4.0 0.00 0.01 0.00 74 1015.7
20260905110530 58 51 1.0 3.0 0.00 0.01 0.00 75 1015.7
20260905110030 58 50 2.0 5.0 0.00 0.01 0.00 75 1015.6
20260905105529 58 50 3.0 5.0 0.00 0.01 0.00 75 1015.7
20260905105029 58 53 3.0 5.0 0.00 0.01 0.00 74 1015.7
20260905104531 58 59 2.0 5.0 0.00 0.01 0.00 73 1015.7
20260905104028 58 63 3.0 5.0 0.00 0.01 0.00 73 1015.7
20260905103530 59 77 2.0 5.0 0.00 0.01 0.00 73 1015.7
20260905103028 59 80 3.0 4.0 0.00 0.01 0.00 73 1015.8
20260905102528 58 82 0.0 2.0 0.00 0.01 0.00 74 1015.9
20260905102031 58 82 0.0 2.0 0.00 0.01 0.00 74 1015.9
20260905101532 58 82 0.0 2.0 0.00 0.01 0.00 74 1015.9
20260905101031 58 81 0.0 2.0 0.00 0.01 0.00 75 1015.9
20260905100527 58 81 1.0 4.0 0.00 0.01 0.00 75 1016.0
20260905100058 58 81 1.0 4.0 0.00 0.01 0.00 75 1016.0
20260905095526 57 81 0.0 2.0 0.00 0.02 0.00 75 1015.9
20260905095025 57 81 0.0 2.0 0.00 0.02 0.00 75 1016.0
20260905094527 57 81 0.0 1.0 0.00 0.02 0.00 75 1016.0
20260905094024 58 80 0.0 0.0 0.00 0.02 0.00 74 1015.9
20260905093524 58 80 0.0 0.0 0.00 0.02 0.00 74 1016.1
20260905093023 58 80 0.0 0.0 0.00 0.02 0.00 74 1016.0
20260905092526 58 78 0.0 0.0 0.00 0.02 0.00 73 1015.9
20260905092024 58 78 0.0 0.0 0.00 0.02 0.00 73 1016.0
20260905091521 59 78 0.0 0.0 0.00 0.02 0.00 73 1015.8
20260905091019 59 79 0.0 0.0 0.00 0.02 0.00 72 1015.9
20260905090519 59 79 0.0 0.0 0.00 0.02 0.00 72 1015.9
20260905090019 59 79 0.0 0.0 0.00 0.04 0.00 72 1015.9
20260905085522 59 78 0.0 0.0 0.00 0.04 0.00 71 1015.9
20260905085017 59 78 0.0 1.0 0.00 0.04 0.00 70 1015.9
20260905084516 59 78 0.0 1.0 0.00 0.04 0.00 70 1015.9
20260905084015 60 78 0.0 1.0 0.00 0.04 0.00 69 1015.9
20260905083514 60 78 0.0 2.0 0.00 0.04 0.00 68 1015.8
20260905083012 61 78 0.0 4.0 0.00 0.04 0.00 67 1015.8
20260905082511 61 78 0.0 4.0 0.00 0.04 0.00 67 1015.8
20260905082011 61 78 0.0 2.0 0.00 0.04 0.00 66 1015.8
20260905081509 62 78 0.0 2.0 0.00 0.04 0.00 65 1015.7
20260905081012 62 78 1.0 4.0 0.00 0.04 0.00 65 1015.6
20260905080509 62 78 1.0 4.0 0.00 0.04 0.00 65 1015.7
20260905080009 62 78 1.0 4.0 0.00 0.05 0.00 65 1015.6
20260905075509 62 76 1.0 3.0 0.00 0.05 0.00 65 1015.6
20260905075007 62 76 1.0 4.0 0.00 0.05 0.00 65 1015.6
20260905074507 61 73 1.0 3.0 0.00 0.05 0.00 65 1015.5
20260905074007 62 80 2.0 4.0 0.00 0.05 0.00 65 1015.6
20260905073506 62 82 2.0 4.0 0.00 0.05 0.00 65 1015.6
20260905073009 62 84 2.0 4.0 0.00 0.05 0.00 65 1015.5
20260905072507 62 85 2.0 3.0 0.00 0.05 0.00 65 1015.6
20260905072005 62 87 2.0 5.0 0.00 0.05 0.00 65 1015.6
20260905071505 62 87 2.0 5.0 0.00 0.05 0.00 65 1015.5
20260905071004 62 86 2.0 3.0 0.00 0.05 0.00 65 1015.5
20260905070504 62 57 2.0 5.0 0.00 0.05 0.00 65 1015.5
20260905070004 62 47 2.0 5.0 0.00 0.06 0.05 65 1015.5
20260905065503 62 80 2.0 4.0 0.00 0.06 0.05 65 1015.5
20260905065002 62 85 2.0 4.0 0.00 0.06 0.05 65 1015.5
20260905064502 62 101 2.0 3.0 0.00 0.06 0.05 65 1015.5
20260905064003 62 105 1.0 3.0 0.00 0.06 0.05 65 1015.5
20260905063502 63 105 1.0 3.0 0.00 0.06 0.05 65 1015.5
20260905063002 63 105 1.0 3.0 0.00 0.06 0.05 64 1015.5
20260905062501 63 106 1.0 4.0 0.00 0.06 0.05 63 1015.5
20260905062002 63 107 1.0 4.0 0.00 0.06 0.05 62 1015.4
20260905061502 63 107 2.0 5.0 0.00 0.06 0.05 62 1015.4
20260905061002 64 108 2.0 5.0 0.00 0.06 0.05 62 1015.5
20260905060501 64 138 2.0 4.0 0.00 0.06 0.05 60 1015.5
20260905060003 64 151 1.0 2.0 0.00 0.10 0.05 59 1015.6
20260905055501 64 151 0.0 2.0 0.00 0.10 0.05 59 1015.5
20260905055001 64 151 1.0 4.0 0.00 0.10 0.05 58 1015.6
20260905054503 64 152 1.0 3.0 0.00 0.10 0.05 57 1015.7
20260905054100 64 152 1.0 5.0 0.00 0.10 0.05 57 1015.6
20260905053600 64 155 1.0 5.0 0.00 0.10 0.05 57 1015.6
20260905053101 64 156 0.0 5.0 0.00 0.10 0.05 58 1015.6
20260905052601 64 165 2.0 6.0 0.00 0.10 0.05 61 1015.7
20260905052100 64 152 2.0 6.0 0.00 0.10 0.05 61 1015.6
20260905051600 63 142 1.0 5.0 0.00 0.10 0.05 62 1015.7
20260905051059 63 150 1.0 4.0 0.00 0.10 0.05 62 1015.7
20260905050559 63 167 0.0 7.0 0.00 0.10 0.05 63 1015.7
20260905050100 63 140 4.0 8.0 0.00 0.10 0.05 64 1015.7
20260905045559 65 197 3.0 6.0 0.00 0.12 0.05 61 1015.8
20260905045059 66 90 2.0 5.0 0.00 0.12 0.05 59 1015.6
20260905044608 66 78 1.0 4.0 0.00 0.12 0.05 59 1015.6
20260905044058 66 74 1.0 4.0 0.00 0.12 0.05 59 1015.5
20260905043600 66 71 1.0 3.0 0.00 0.12 0.05 58 1015.4
20260905043104 66 63 2.0 4.0 0.00 0.12 0.05 58 1015.4
20260905042557 66 344 1.0 5.0 0.00 0.12 0.05 58 1015.3
20260905042058 66 344 1.0 3.0 0.00 0.12 0.05 58 1015.2
20260905041602 66 344 1.0 3.0 0.00 0.12 0.05 58 1015.2
20260905041057 66 344 1.0 4.0 0.00 0.12 0.05 57 1015.3
20260905040557 67 344 1.0 4.0 0.00 0.12 0.05 57 1015.2
20260905040108 67 344 1.0 4.0 0.00 0.12 0.05 56 1015.1
20260905035557 68 344 1.0 3.0 0.00 0.14 0.05 56 1015.1
20260905035056 68 344 1.0 2.0 0.00 0.14 0.05 55 1015.0
20260905034603 68 344 1.0 3.0 0.00 0.14 0.05 52 1015.0
20260905034057 69 344 2.0 5.0 0.00 0.14 0.05 53 1015.0
20260905033555 69 344 4.0 5.0 0.00 0.14 0.05 52 1014.9
20260905033055 69 344 3.0 5.0 0.00 0.14 0.05 52 1014.9
20260905032558 69 344 3.0 4.0 0.00 0.14 0.05 52 1014.8
20260905032055 69 344 2.0 3.0 0.00 0.14 0.05 53 1014.8
20260905031556 69 344 2.0 3.0 0.00 0.14 0.05 53 1014.7
20260905031054 69 344 1.0 4.0 0.00 0.14 0.05 53 1014.7
20260905030555 69 344 1.0 4.0 0.00 0.14 0.05 53 1014.7
20260905030055 69 344 1.0 2.0 0.00 0.14 0.05 53 1014.7
20260905025555 69 344 1.0 3.0 0.00 0.14 0.05 52 1014.7
20260905025054 70 344 1.0 3.0 0.00 0.14 0.05 52 1014.6
20260905024602 70 344 1.0 5.0 0.00 0.14 0.05 52 1014.5
20260905024053 70 344 2.0 5.0 0.00 0.14 0.05 52 1014.6
20260905023553 70 344 3.0 5.0 0.00 0.14 0.05 51 1014.5
20260905023052 71 344 3.0 5.0 0.00 0.14 0.05 50 1014.5
20260905022553 71 290 2.0 5.0 0.00 0.14 0.05 51 1014.5
20260905022052 72 288 1.0 4.0 0.00 0.14 0.05 49 1014.5
20260905021553 73 280 1.0 2.0 0.00 0.14 0.05 49 1014.5
20260905021052 73 280 1.0 2.0 0.00 0.14 0.05 49 1014.6
20260905020552 73 279 1.0 3.0 0.00 0.14 0.05 48 1014.5
20260905020056 73 279 1.0 4.0 0.00 0.14 0.05 49 1014.5
20260905015552 73 296 0.0 7.0 0.00 0.14 0.05 49 1014.5
20260905015051 73 275 3.0 7.0 0.00 0.14 0.05 48 1014.5
20260905014551 73 275 2.0 7.0 0.00 0.14 0.05 49 1014.5
20260905014050 74 274 3.0 7.0 0.00 0.14 0.05 48 1014.4
20260905013550 74 277 3.0 7.0 0.00 0.14 0.05 49 1014.4
20260905013049 74 295 3.0 7.0 0.00 0.14 0.05 48 1014.4
20260905012549 74 328 1.0 7.0 0.00 0.14 0.05 48 1014.4
20260905012049 74 273 3.0 8.0 0.00 0.14 0.05 49 1014.4
20260905011552 73 281 5.0 10.0 0.00 0.14 0.05 48 1014.4
20260905011051 73 226 5.0 10.0 0.00 0.14 0.05 49 1014.4
20260905010549 74 268 6.0 10.0 0.00 0.14 0.05 48 1014.3
20260905010058 74 224 5.0 9.0 0.00 0.14 0.05 46 1014.2
20260905005547 75 200 5.0 9.0 0.00 0.14 0.05 46 1014.3
20260905005047 75 208 0.0 6.0 0.00 0.14 0.05 45 1014.2
20260905004547 74 208 3.0 9.0 0.00 0.14 0.05 46 1014.2
20260905004046 74 193 5.0 10.0 0.00 0.14 0.05 47 1014.2
20260905003546 75 215 6.0 10.0 0.00 0.14 0.05 45 1014.2
20260905003046 75 229 2.0 8.0 0.00 0.14 0.05 46 1014.2
20260905002545 75 258 2.0 8.0 0.00 0.14 0.05 45 1014.2
20260905002045 75 239 3.0 6.0 0.00 0.14 0.05 45 1014.2
20260905001545 74 223 1.0 8.0 0.00 0.14 0.05 45 1014.2
20260905001044 74 254 5.0 8.0 0.00 0.14 0.05 46 1014.3
20260905000545 74 243 3.0 9.0 0.00 0.14 0.05 47 1014.3
20260905000044 75 219 5.0 9.0 0.00 0.14 0.05 46 1014.3
20260904235543 75 157 4.0 8.0 0.00 0.14 0.05 45 1014.3
20260904235045 74 232 0.0 9.0 0.00 0.14 0.05 45 1014.4
20260904234543 74 230 6.0 10.0 0.00 0.14 0.05 44 1014.5
20260904234045 74 181 1.0 11.0 0.00 0.14 0.05 46 1014.5
20260904233543 74 209 7.0 13.0 0.00 0.14 0.05 47 1014.6
20260904233042 74 215 8.0 13.0 0.00 0.14 0.05 45 1014.7
20260904232546 75 238 1.0 8.0 0.00 0.14 0.05 45 1014.6
20260904232041 74 212 0.0 9.0 0.00 0.14 0.05 46 1014.6
20260904231558 74 257 5.0 9.0 0.00 0.14 0.05 47 1014.8
20260904231040 74 208 4.0 7.0 0.00 0.14 0.05 48 1014.7
20260904230540 74 130 2.0 8.0 0.00 0.14 0.05 49 1014.7
20260904230040 73 196 4.0 8.0 0.00 0.14 0.05 50 1014.9
20260904225540 73 182 5.0 12.0 0.00 0.14 0.05 51 1014.9
20260904225044 73 216 6.0 15.0 0.00 0.14 0.05 49 1015.0
20260904224539 73 202 9.0 15.0 0.00 0.14 0.05 50 1015.0
20260904224042 75 213 6.0 11.0 0.00 0.14 0.05 50 1015.0
20260904223540 74 247 2.0 11.0 0.00 0.14 0.05 50 1015.0
20260904223039 74 177 2.0 11.0 0.00 0.14 0.05 50 1015.2
20260904222538 74 258 0.0 10.0 0.00 0.14 0.05 51 1015.1
20260904222034 73 360 2.0 10.0 0.00 0.14 0.05 52 1015.1
20260904221535 73 360 2.0 11.0 0.00 0.14 0.05 52 1015.2
20260904221033 72 360 4.0 15.0 0.00 0.14 0.05 53 1015.2
20260904220532 72 360 8.0 15.0 0.00 0.14 0.05 52 1015.2
20260904220032 72 221 7.0 10.0 0.00 0.14 0.05 53 1015.2
20260904215531 72 198 6.0 10.0 0.00 0.14 0.05 53 1015.2
20260904215031 71 360 6.0 11.0 0.00 0.14 0.05 54 1015.2
20260904214531 72 182 6.0 12.0 0.00 0.14 0.05 53 1015.3
20260904214031 72 360 6.0 12.0 0.00 0.14 0.05 54 1015.3
20260904213533 72 360 3.0 14.0 0.00 0.14 0.05 54 1015.2
20260904213030 72 360 6.0 14.0 0.00 0.14 0.05 52 1015.3
20260904212530 72 220 6.0 13.0 0.00 0.14 0.05 55 1015.2
20260904212028 71 235 3.0 16.0 0.00 0.14 0.05 55 1015.2
20260904211527 70 190 11.0 16.0 0.00 0.14 0.05 57 1015.2
20260904211031 71 194 10.0 15.0 0.00 0.14 0.05 57 1015.2
20260904210531 70 219 9.0 16.0 0.00 0.14 0.05 56 1015.2
20260904210033 70 227 9.0 16.0 0.00 0.14 0.05 57 1015.3
20260904205526 70 209 7.0 18.0 0.00 0.14 0.05 59 1015.3
20260904205028 70 251 9.0 18.0 0.00 0.14 0.05 58 1015.2
20260904204526 71 205 5.0 13.0 0.00 0.14 0.05 59 1015.2
20260904204026 69 233 7.0 13.0 0.00 0.14 0.05 59 1015.2
20260904203525 69 269 5.0 13.0 0.00 0.14 0.05 57 1015.2
20260904203024 69 219 8.0 14.0 0.00 0.14 0.05 59 1015.4
20260904202523 69 216 8.0 14.0 0.00 0.14 0.05 57 1015.3
20260904202027 70 222 5.0 16.0 0.00 0.14 0.05 60 1015.2
20260904201523 70 190 10.0 16.0 0.00 0.14 0.05 58 1015.3
20260904201023 70 194 8.0 15.0 0.00 0.14 0.05 59 1015.2
20260904200523 69 198 3.0 11.0 0.00 0.14 0.05 60 1015.2
20260904200031 69 155 7.0 11.0 0.00 0.14 0.05 59 1015.3
20260904195521 69 172 3.0 18.0 0.00 0.14 0.05 65 1015.4
20260904195022 69 150 9.0 18.0 0.00 0.14 0.05 63 1015.5
20260904194619 68 155 4.0 11.0 0.00 0.14 0.05 63 1015.4
20260904194019 68 153 7.0 13.0 0.00 0.14 0.05 59 1015.6
20260904193522 69 198 8.0 13.0 0.00 0.14 0.05 61 1015.6
20260904193018 68 174 5.0 9.0 0.00 0.14 0.05 67 1015.6
20260904192517 67 153 4.0 10.0 0.00 0.14 0.05 64 1015.7
20260904192017 67 178 6.0 12.0 0.00 0.14 0.05 65 1015.8
20260904191517 67 157 3.0 10.0 0.00 0.14 0.05 69 1015.7
20260904191017 67 151 3.0 10.0 0.00 0.14 0.05 67 1015.7
20260904190516 67 150 7.0 10.0 0.00 0.14 0.05 67 1015.9
20260904190014 67 169 6.0 11.0 0.00 0.14 0.05 68 1015.9
20260904185513 67 170 5.0 11.0 0.00 0.14 0.05 68 1015.9
20260904185012 66 360 2.0 9.0 0.00 0.14 0.05 69 1015.9
20260904184513 65 217 3.0 11.0 0.00 0.14 0.05 72 1015.9
20260904184011 66 174 6.0 11.0 0.00 0.14 0.05 70 1016.0
20260904183512 65 184 5.0 10.0 0.00 0.14 0.05 72 1015.9
20260904183010 65 172 5.0 10.0 0.00 0.14 0.05 74 1015.9
20260904182512 65 171 5.0 9.0 0.00 0.14 0.05 73 1015.9
20260904182009 65 165 4.0 10.0 0.00 0.14 0.05 75 1016.1
20260904181509 64 146 5.0 11.0 0.00 0.14 0.05 71 1016.0
20260904181008 64 214 7.0 9.0 0.00 0.14 0.05 71 1016.1
20260904180508 65 157 2.0 12.0 0.00 0.14 0.05 74 1016.0
20260904180008 65 142 7.0 12.0 0.00 0.14 0.05 72 1016.1
20260904175506 65 148 7.0 12.0 0.00 0.14 0.05 74 1016.1
20260904175007 64 155 7.0 12.0 0.00 0.14 0.05 74 1016.0
20260904174504 64 165 8.0 14.0 0.00 0.14 0.05 76 1016.0
20260904174003 64 137 7.0 14.0 0.00 0.14 0.05 79 1016.0
20260904173503 64 178 8.0 12.0 0.00 0.14 0.05 81 1016.0
20260904173000 63 140 8.0 12.0 0.00 0.14 0.05 81 1015.9
20260904172600 63 211 7.0 12.0 0.01 0.14 0.05 81 1015.8
20260904172100 63 186 7.0 11.0 0.01 0.14 0.05 83 1015.7
20260904172000 63 190 6.0 11.0 0.01 0.14 0.05 83 1015.7
20260904171558 63 153 8.0 11.0 0.01 0.14 0.05 82 1015.7
20260904171057 63 170 5.0 9.0 0.01 0.14 0.05 84 1015.7
20260904170557 63 186 7.0 11.0 0.01 0.14 0.05 83 1015.6
20260904170056 62 140 7.0 12.0 0.01 0.14 0.05 84 1015.6
20260904165555 62 142 6.0 12.0 0.01 0.14 0.05 85 1015.5
20260904165054 62 146 7.0 10.0 0.01 0.14 0.05 85 1015.4
20260904164554 62 360 4.0 12.0 0.01 0.14 0.05 87 1015.4
20260904164053 61 360 8.0 12.0 0.01 0.14 0.05 86 1015.5
20260904163552 61 360 6.0 11.0 0.01 0.14 0.05 87 1015.4
20260904163056 62 360 6.0 13.0 0.01 0.14 0.05 87 1015.4
20260904162551 61 360 7.0 10.0 0.00 0.13 0.04 88 1015.3
20260904162051 61 360 7.0 11.0 0.00 0.13 0.04 89 1015.3
20260904161600 60 360 7.0 11.0 0.00 0.13 0.04 90 1015.2
20260904161050 60 360 7.0 10.0 0.00 0.13 0.04 91 1015.2
20260904160549 60 360 6.0 8.0 0.00 0.13 0.04 92 1015.3
20260904160052 60 360 4.0 9.0 0.00 0.13 0.04 92 1015.2
20260904155548 60 164 5.0 8.0 0.00 0.13 0.04 92 1015.3
20260904155048 60 201 4.0 7.0 0.00 0.13 0.04 93 1015.3
20260904154550 59 199 3.0 7.0 0.00 0.13 0.04 93 1015.3
20260904154047 59 183 1.0 7.0 0.00 0.13 0.04 93 1015.1
20260904153547 59 183 3.0 7.0 0.00 0.13 0.04 93 1015.0
20260904153046 59 184 3.0 6.0 0.00 0.13 0.04 93 1015.1
20260904152547 59 170 4.0 9.0 0.00 0.13 0.04 93 1015.1
20260904152046 59 187 5.0 10.0 0.00 0.13 0.04 93 1015.1
20260904151551 59 163 5.0 10.0 0.00 0.13 0.04 94 1015.2
20260904151045 59 213 6.0 9.0 0.00 0.13 0.04 94 1015.1
20260904150546 59 183 6.0 10.0 0.00 0.13 0.04 94 1015.0
20260904150044 59 182 5.0 10.0 0.00 0.13 0.04 94 1014.9
20260904145544 59 175 5.0 10.0 0.00 0.13 0.04 94 1014.9
20260904145043 59 144 7.0 10.0 0.00 0.13 0.04 94 1014.7
20260904144541 59 186 5.0 7.0 0.00 0.13 0.04 94 1014.7
20260904144040 59 189 4.0 7.0 0.00 0.13 0.04 94 1014.7
20260904143540 59 190 4.0 6.0 0.00 0.13 0.04 94 1014.6
20260904143040 59 190 4.0 6.0 0.00 0.13 0.04 94 1014.5
20260904142540 59 194 1.0 6.0 0.00 0.13 0.04 94 1014.5
20260904142039 59 194 2.0 6.0 0.00 0.13 0.04 94 1014.5
20260904141550 59 196 4.0 7.0 0.00 0.13 0.04 94 1014.5
20260904141042 59 194 4.0 7.0 0.00 0.13 0.04 94 1014.4
20260904140536 59 167 2.0 5.0 0.00 0.13 0.04 94 1014.2
20260904140037 59 146 1.0 6.0 0.00 0.13 0.04 94 1014.2
20260904135540 59 158 3.0 7.0 0.00 0.13 0.04 94 1014.2
20260904135037 59 169 5.0 7.0 0.00 0.13 0.04 94 1014.2
20260904134550 59 169 5.0 8.0 0.00 0.13 0.04 94 1014.0
20260904134033 59 180 5.0 8.0 0.00 0.13 0.04 94 1014.0
20260904133533 60 163 3.0 6.0 0.00 0.13 0.04 94 1013.9
20260904133035 60 169 1.0 4.0 0.00 0.13 0.04 94 1013.9
20260904132535 60 169 2.0 5.0 0.00 0.13 0.04 94 1013.9
20260904132032 60 180 2.0 7.0 0.00 0.13 0.04 94 1013.9
20260904131532 60 190 2.0 7.0 0.00 0.13 0.04 94 1013.9
20260904131030 60 174 3.0 7.0 0.00 0.13 0.04 94 1013.7
20260904130530 60 185 4.0 7.0 0.00 0.13 0.04 94 1013.8
20260904130029 60 171 4.0 7.0 0.00 0.13 0.04 94 1013.7
20260904125532 60 182 4.0 6.0 0.00 0.13 0.04 94 1013.7
20260904125026 60 186 4.0 6.0 0.00 0.13 0.04 94 1013.7
20260904124526 60 182 2.0 6.0 0.00 0.13 0.04 94 1013.6
20260904124026 60 184 3.0 6.0 0.00 0.13 0.04 94 1013.5
20260904123525 60 183 4.0 7.0 0.00 0.13 0.04 94 1013.6
20260904123024 60 192 3.0 7.0 0.00 0.13 0.04 94 1013.4
20260904122524 60 178 3.0 8.0 0.00 0.13 0.04 94 1013.4
20260904122024 60 204 5.0 9.0 0.00 0.13 0.04 94 1013.4
20260904121523 60 161 5.0 9.0 0.00 0.13 0.04 94 1013.3
20260904121022 60 157 4.0 8.0 0.00 0.13 0.04 94 1013.3